www.pogodaiklimat.ru

Погода и климат >> Архив погоды >> Россия >> город Санкт-Петербург >> Ломоносов


ПОГОДА в Ломоносове

  • Прогноз погоды в Ломоносове
  • Монитор погоды в Ломоносове

АРХИВ ПОГОДЫ в Ломоносове

Время (UTC), дата Ветер
(напр.,м/с)
 
Видим.   Явления Облачность Т
(С)
Тd
(С)
f
(%)
Тe
(С)
Тes
(С)
Комфортность P
(гПа)
Po
(гПа)
Тmin
(С)
Tmax
(С)
R
(мм)
R24
(мм)
S
(см)
06 12.09 ЮЗ 1 20 км 8/1 600 м
[Cu hum Ac trans Ci fib]
+15.4 +10.7 74 +16 +17 1018.4 1017.9 +14.2 0.1
09 12.09 Ю 1 20 км 6/3 600 м
[Cu hum Ac trans]
+18.0 +9.7 58 +19 +23 1018.0 1017.5
12 12.09 ЮЗ 1 20 км 10/8 600 м
[Sc Ac trans]
+19.3 +7.6 47 +21 +22 комфорт 1016.6 1016.1
15 12.09 З 1 20 км 9/6 600 м
[Sc Ci fib]
+18.5 +7.5 49 +20 +20 1015.1 1014.7
18 12.09 ЮЗ 1 20 км 3/0
[Ac trans]
+16.0 +11.0 72 +17 +17 1014.8 1014.3 +20.0
21 12.09 ЮЗ 1 20 км 3/0
[Ac trans]
+15.0 +11.1 77 +16 +16 1014.4 1013.9
00 13.09 З 1 20 км 8/4 600 м
[Sc Ac trans]
+13.8 +10.6 81 +14 +14 1013.9 1013.4
03 13.09 ЮЗ 1 10 км 10/8 600 м
[Sc Ac As]
+13.4 +11.7 89 +14 +14 1012.6 1012.1 +13.0
06 13.09 ЮЗ 2 10 км слаб. ливневой дождь 9/8 300 м
[Cb calv Ac As]
+14.3 +11.7 84 +14 +14 1011.4 1010.9 +13.0 0.1
09 13.09 З 2 4000 м ливневой дождь 10/10 300 м
[Cb calv]
+12.5 +11.4 93 +11 +11 1010.3 1009.8
12 13.09 ЮЗ 2 20 км {ливн. осадки} 6/4 300 м
[Cu med, cong Ac trans Ci fib]
+15.2 +11.5 79 +15 +17 1008.9 1008.4
15 13.09 Ю 1 10 км слаб. ливневой дождь 10/8 300 м
[Cb calv As op]
+14.3 +12.1 87 +15 +15 1007.2 1006.7 5
18 13.09 З 1 20 км {ливн. осадки} 9/9 300 м
[Cb calv]
+12.1 +11.0 93 +12 +12 1006.4 1005.9 +15.5 8
21 13.09 СЗ 4 20 км {ливн. осадки} 8/6 300 м
[Sc Ac trans]
+13.7 +10.5 81 +12 +12 1006.8 1006.3
00 14.09 СЗ 5-11
{11}
20 км {ливн. осадки} 1/1 600 м
[Cu Sc]
+12.6 +6.8 68 +10 +10 1008.3 1007.8
03 14.09 СЗ 5-10
{11}
20 км 9/9 300 м
[Sc]
+12.2 +7.0 71 +10 +10 1009.1 1008.6 +11.5 4
06 14.09 СЗ 6-10
{11}
20 км 8/8 300 м
[Cb calv]
+12.6 +7.7 72 +10 +10 1010.5 1010.0 +11.5 2
09 14.09 СЗ 6-12
{14}
20 км 6/6 600 м
[Cu hum]
+13.1 +4.6 56 +11 +12 1012.0 1011.5
12 14.09 З 6-12
{13}
20 км 8/8 600 м
[Cu Sc]
+13.4 +4.8 56 +11 +12 1012.5 1012.0
15 14.09 З 6-12
{12}
20 км 8/8 600 м
[Cu Sc]
+13.8 +4.5 53 +12 +12 1012.4 1011.9
18 14.09 З 5-10
{12}
20 км {ливн. осадки} 6/6 300 м
[Cb calv]
+13.1 +6.4 64 +11 +11 1012.5 1012.0 +14.0 0.0
21 14.09 СЗ 5
{10}
20 км 4/4 300 м
[Cb calv]
+12.1 +5.9 66 +10 +10 1013.0 1012.5
00 15.09 штиль 0 10 км 8/8 300 м
[Cb calv]
+8.7 +6.1 84 +8 +8 1012.9 1012.4
03 15.09 штиль 0 10 км {ливн. осадки} 6/5 300 м
[Cb calv Cs]
+6.9 +5.8 93 +6 +6 1011.7 1011.2 +6.7 0.0
06 15.09 штиль 0 10 км 10/0
[As op Cs]
+7.9 +6.1 88 +7 +8 1008.6 1008.1 +6.7
09 15.09 Ю 1 10 км слаб. дождь 10/0 300 м
[As op]
+8.4 +7.1 92 +8 +9 1003.9 1003.4
12 15.09 ЮЗ 6 10 км слаб. дождь 10/10 300 м
[Frnb Ns]
+9.3 +8.6 95 +5 +5 997.0 996.5
15 15.09 ЮЗ 2 10 км дождь 10/10 300 м
[Frnb Ns]
+10.4 +9.8 96 +9 +9 990.1 989.6 5
18 15.09 СЗ 3 10 км слаб. дождь 10/0 300 м
[As op]
+10.9 +8.9 87 +9 +9 988.8 988.3 +13.1 11
21 15.09 ЮЗ 3 4000 м ливневой дождь 9/9 300 м
[Cb calv]
+10.7 +9.3 91 +9 +9 988.7 988.2
00 16.09 ЮЗ 1 4000 м 10/10 300 м
[Cb calv]
+9.6 +8.6 93 +9 +9 988.6 988.1
03 16.09 ЮЗ 1 4000 м слаб. ливневой дождь 10/10 300 м
[Cb calv]
+9.3 +8.3 93 +9 +9 988.1 987.6 +0.9 1
06 16.09 З 2 10 км слаб. ливневой дождь 8/8 300 м
[Cb calv]
+10.1 +8.7 91 +9 +9 987.1 986.6 +8.5 5
09 16.09 З 4
{11}
20 км {ливн. осадки} 9/9 300 м
[Cb calv]
+12.0 +7.5 74 +10 +10 987.4 986.9
12 16.09 СЗ 6-11
{11}
20 км {ливн. осадки} 9/8 300 м
[Cb calv Ac As]
+11.1 +6.4 73 +8 +8 988.5 988.0
15 16.09 СЗ 4-10
{14}
10 км 10/8 300 м
[Cb calv As op]
+11.1 +7.4 78 +9 +9 990.7 990.2 1
18 16.09 С 2
{10}
20 км {ливн. осадки} 10/5 300 м
[Cu Sc Ac As]
+10.4 +6.6 77 +9 +9 992.5 992.0 +12.0 0.5
21 16.09 СЗ 3 20 км 8/0
[Ac As]
+10.4 +5.4 71 +8 +8 993.2 992.7
00 17.09 С 2 20 км 8/0
[Ac trans Ci fib]
+9.9 +6.0 77 +8 +8 993.4 992.9
03 17.09 СЗ 4 20 км 8/8 300 м
[Cb calv]
+8.9 +6.3 84 +6 +6 993.5 993.0 +8.5 0.1
06 17.09 СЗ 2 20 км 10/8 600 м
[Sc diur, vesp As op]
+8.0 +5.8 86 +6 +6 994.0 993.5 +8.0
09 17.09 СЗ 3 20 км 10/10 600 м
[Sc diur, vesp]
+9.8 +5.7 76 +8 +8 994.7 994.2
12 17.09 З 2 10 км в посл. час ливневой дождь 10/10 600 м
[Sc diur, vesp]
+9.4 +7.1 86 +8 +8 995.6 995.1
15 17.09 З 1 10 км слаб. ливневой дождь 9/9 600 м
[Cb calv]
+9.8 +7.5 86 +9 +9 995.9 995.4 0.3
18 17.09 СВ 1 10 км в посл. час ливневой дождь 9/3 600 м
[Sc Ac trans Ci fib]
+9.4 +7.5 88 +9 +9 996.2 995.7 +10.1 4
21 17.09 СВ 1 10 км 9/0
[Ac trans Ci fib]
+9.9 +7.6 86 +9 +9 996.5 996.0
00 18.09 СВ 1 10 км 9/3 600 м
[Sc Ac trans Ci fib]
+9.9 +7.6 86 +9 +9 997.0 996.5
03 18.09 СВ 5 10 км 9/9 600 м
[Sc]
+10.0 +7.0 82 +7 +7 997.7 997.2 +9.2 4
06 18.09 СВ 7 20 км 9/8 300 м
[Cb calv Ac trans]
+9.3 +7.6 89 +5 +5 999.5 999.0 +9.1
09 18.09 СВ 6 20 км 9/9 300 м
[Cb calv]
+9.9 +6.0 77 +6 +7 1001.6 1001.1
12 18.09 СВ 5 20 км 8/6 300 м
[Cb calv Ci fib]
+10.5 +5.3 70 +8 +9 1003.0 1002.5
15 18.09 СВ 5 20 км 8/4 600 м
[Cb calv Ac trans Ci fib]
+10.6 +3.0 59 +8 +8 1004.4 1003.9
18 18.09 СВ 5
{10}
20 км 10/0
[Ac As]
+9.5 +3.3 65 +6 +6 1006.8 1006.3 +10.8
21 18.09 СВ 4 20 км 8/8 600 м
[Cu Sc]
+8.1 +2.6 68 +5 +5 1008.4 1007.9
00 19.09 СВ 4 20 км 6/0
[Cs]
+7.4 +3.1 74 +4 +4 1009.3 1008.8
03 19.09 СВ 4 20 км 8/0
[Ac trans]
+7.9 +3.2 72 +5 +5 1010.0 1009.5 +7.2

 

Местоположение метеостанции Ломоносов (город Санкт-Петербург, Россия): широта 59.92 долгота 29.78 высота над уровнем моря 4 м.

В архиве по умолчанию представлена погода в Ломоносове за последнюю неделю. Архивные данные за месяц целиком и за предыдущие месяцы, начиная с января 2011 года, Вы можете получить, выбрав интересующий диапазон дат из раскрывающегося списка и нажав кнопку "Ввод!".


*Определитесь, кто Вы:
робот инопланетянин человек

Внимание! Время в таблицах - всемирное. Для получения местного времени необходимо прибавить поправку, которая равна 3 ч.

Смотрите также архив погоды в соседних городах и на ближайших метеорологических станциях:

Погода в Кронштадте (город Санкт-Петербург, Россия) (7 км)
Погода в Лисьем Носу (город Санкт-Петербург, Россия) (16 км)
Погода в Шепелево (Ленинградская область, Россия) (29 км)
Погода в Санкт-Петербурге (город Санкт-Петербург, Россия) (29 км)
Погода в Сосновом Бору (Ленинградская область, Россия) (36 км)
Погода в Рощино (Ленинградская область, Россия) (38 км)
Погода в Воейково (город Санкт-Петербург, Россия) (51 км)
Погода в Озерках (Ленинградская область, Россия) (53 км)
Погода в Волосово (Ленинградская область, Россия) (57 км)
Погода в Белогорке (Ленинградская область, Россия) (66 км)

Пояснения к столбцам:

Ветер - указаны скорость ветра в м/с - средняя за 10 мин, порывы в срок и между сроками (в фигурных скобках) и направление, откуда дует ветер: С - северный, СВ - северо-восточный, В - восточный, ЮВ - юго-восточный, Ю - южный, ЮЗ - юго-западный, З - западный, СЗ - северо-западный.
Видимость - горизонтальная дальность видимости в метрах или километрах. При видимости от 1 до 10 км при отсутствии осадков обычно наблюдается дымка, при ухудшении видимости до 1 км и менее - туман. В сухую погоду видимость может ухудшаться дымом, пылью или мглою.
Явления - указаны атмосферные явления, наблюдавшиеся в срок или в последний час перед сроком; фигурными скобками обозначены явления, наблюдавшиеся между сроками (за 1-3 часа до срока); квадратными скобками обозначены град или гололедные отложения с указанием их диаметра в мм.
Облачность - указаны через наклонную черту общая и нижняя облачность в баллах и высота нижней границы облаков в метрах; квадратными скобками обозначены формы облаков: Ci - перистые, Cs - перисто-слоистые, Cc - перисто-кучевые, Ac - высококучевые, As - высокослоистые, Sc - слоисто-кучевые, Ns - слоисто-дождевые, Cu - кучевые, Cb - кучево-дождевые. Подробнее классификацию облаков см. в Атласе облаков (PDF).
T - Температура воздуха - температура, измеренная на высоте 2 м над землей.
Td - Температура точки росы - температура, при понижении до которой содержащийся в воздухе водяной пар достигнет насыщения.
f - Относительная влажность воздуха - влажноcть воздуха, измеренная на высоте 2 м над землей.
Te - Эффективная температура - температура, которую ощущает одетый по сезону человек в тени. Характеристика душности погоды. При расчете учитывается влияние влажности воздуха и скорости ветра на теплоощущения человека.
Tes - Эффективная температура на солнце - температура, которую ощущает человек, с поправкой на солнечный нагрев. Характеристика знойности погоды. Зависит от высоты солнца над горизонтом, облачности и скорости ветра. Ночью, в пасмурную погоду, а также при ветре 12 м/с и более поправка равна нулю.
P - Атмосферное давление - приведенное к уровню моря атмосферное давление.
Po - Атмосферное давление - измеренное на уровне метеостанции атмосферное давление.
Tmin - Минимальная температура - минимум температуры воздуха на высоте 2 м над землей.
Tmax - Максимальная температура - максимум температуры воздуха на высоте 2 м над землей.
R - Количество осадков - Количество выпавших осадков за период времени, мм. При наведении курсора мыши на число - период времени, за который выпало указанное количество осадков.
R24 - Количество осадков - Количество выпавших осадков за 24 часа, мм.
S - Снежный покров - Высота снежного покрова, см. При наведении курсора мыши на число - состояние снежного покрова и степень покрытия местности в баллах.